| time (UTC) | temp F | wind direction | speed MPH | gust MPH | rain 1hr in | rain 24hr in | rain mn in | humidity % | barometer mb |
| 20260504204028 | 82 | 139 | 3.0 | 7.0 | 0.00 | 0.00 | 0.00 | 54 | 1012.5 |
| 20260504203528 | 82 | 155 | 1.0 | 9.0 | 0.00 | 0.00 | 0.00 | 54 | 1012.5 |
| 20260504203027 | 81 | 171 | 3.0 | 10.0 | 0.00 | 0.00 | 0.00 | 54 | 1012.4 |
| 20260504202527 | 81 | 188 | 4.0 | 11.0 | 0.00 | 0.00 | 0.00 | 55 | 1012.6 |
| 20260504202025 | 81 | 158 | 4.0 | 10.0 | 0.00 | 0.00 | 0.00 | 55 | 1012.7 |
| 20260504201524 | 81 | 186 | 5.0 | 12.0 | 0.00 | 0.00 | 0.00 | 54 | 1012.8 |
| 20260504201024 | 81 | 163 | 7.0 | 12.0 | 0.00 | 0.00 | 0.00 | 53 | 1012.9 |
| 20260504200523 | 82 | 125 | 4.0 | 8.0 | 0.00 | 0.00 | 0.00 | 54 | 1012.9 |
| 20260504200035 | 82 | 155 | 1.0 | 9.0 | 0.00 | 0.00 | 0.00 | 55 | 1013.1 |
| 20260504195522 | 82 | 152 | 5.0 | 11.0 | 0.00 | 0.00 | 0.00 | 52 | 1013.1 |
| 20260504195021 | 82 | 132 | 6.0 | 11.0 | 0.00 | 0.00 | 0.00 | 52 | 1013.2 |
| 20260504194522 | 82 | 182 | 4.0 | 10.0 | 0.00 | 0.00 | 0.00 | 51 | 1013.2 |
| 20260504194023 | 83 | 160 | 2.0 | 9.0 | 0.00 | 0.00 | 0.00 | 51 | 1013.2 |
| 20260504193519 | 83 | 182 | 4.0 | 9.0 | 0.00 | 0.00 | 0.00 | 51 | 1013.4 |
| 20260504193019 | 84 | 155 | 3.0 | 9.0 | 0.00 | 0.00 | 0.00 | 50 | 1013.4 |
| 20260504192517 | 84 | 159 | 2.0 | 9.0 | 0.00 | 0.00 | 0.00 | 51 | 1013.5 |
| 20260504192017 | 83 | 192 | 3.0 | 11.0 | 0.00 | 0.00 | 0.00 | 51 | 1013.4 |
| 20260504191527 | 81 | 173 | 5.0 | 11.0 | 0.00 | 0.00 | 0.00 | 53 | 1013.6 |
| 20260504191016 | 82 | 189 | 3.0 | 14.0 | 0.00 | 0.00 | 0.00 | 53 | 1013.6 |
| 20260504190516 | 83 | 227 | 6.0 | 14.0 | 0.00 | 0.00 | 0.00 | 51 | 1013.6 |
| 20260504190016 | 82 | 222 | 3.0 | 7.0 | 0.00 | 0.00 | 0.00 | 51 | 1013.7 |
| 20260504185515 | 82 | 207 | 1.0 | 10.0 | 0.00 | 0.00 | 0.00 | 52 | 1013.7 |
| 20260504185014 | 81 | 186 | 3.0 | 10.0 | 0.00 | 0.00 | 0.00 | 54 | 1013.9 |
| 20260504184515 | 81 | 196 | 4.0 | 11.0 | 0.00 | 0.00 | 0.00 | 53 | 1014.0 |
| 20260504184015 | 81 | 198 | 1.0 | 13.0 | 0.00 | 0.00 | 0.00 | 54 | 1014.0 |
| 20260504183513 | 81 | 171 | 7.0 | 13.0 | 0.00 | 0.00 | 0.00 | 52 | 1014.0 |
| 20260504183032 | 81 | 153 | 6.0 | 12.0 | 0.00 | 0.00 | 0.00 | 53 | 1014.0 |
| 20260504182512 | 81 | 186 | 7.0 | 12.0 | 0.00 | 0.00 | 0.00 | 52 | 1014.1 |
| 20260504182011 | 82 | 196 | 6.0 | 12.0 | 0.00 | 0.00 | 0.00 | 51 | 1014.0 |
| 20260504181522 | 81 | 155 | 3.0 | 14.0 | 0.00 | 0.00 | 0.00 | 52 | 1014.2 |
| 20260504181011 | 83 | 178 | 6.0 | 14.0 | 0.00 | 0.00 | 0.00 | 49 | 1014.3 |
| 20260504180515 | 83 | 203 | 4.0 | 15.0 | 0.00 | 0.00 | 0.00 | 49 | 1014.3 |
| 20260504180010 | 82 | 181 | 5.0 | 15.0 | 0.00 | 0.00 | 0.00 | 49 | 1014.3 |
| 20260504175508 | 83 | 256 | 2.0 | 11.0 | 0.00 | 0.00 | 0.00 | 50 | 1014.5 |
| 20260504175007 | 82 | 190 | 4.0 | 11.0 | 0.00 | 0.00 | 0.00 | 51 | 1014.7 |
| 20260504174507 | 82 | 183 | 2.0 | 10.0 | 0.00 | 0.00 | 0.00 | 51 | 1014.7 |
| 20260504174006 | 82 | 338 | 3.0 | 10.0 | 0.00 | 0.00 | 0.00 | 53 | 1014.8 |
| 20260504173506 | 81 | 187 | 6.0 | 11.0 | 0.00 | 0.00 | 0.00 | 54 | 1014.9 |
| 20260504173004 | 80 | 161 | 3.0 | 13.0 | 0.00 | 0.00 | 0.00 | 55 | 1014.8 |
| 20260504172504 | 80 | 178 | 5.0 | 13.0 | 0.00 | 0.00 | 0.00 | 56 | 1014.8 |
| 20260504172002 | 80 | 195 | 3.0 | 14.0 | 0.00 | 0.00 | 0.00 | 55 | 1015.1 |
| 20260504171501 | 79 | 169 | 5.0 | 10.0 | 0.00 | 0.00 | 0.00 | 55 | 1015.2 |
| 20260504171003 | 80 | 223 | 2.0 | 10.0 | 0.00 | 0.00 | 0.00 | 54 | 1015.3 |
| 20260504170601 | 80 | 174 | 3.0 | 11.0 | 0.00 | 0.00 | 0.00 | 53 | 1015.2 |
| 20260504170109 | 80 | 147 | 4.0 | 15.0 | 0.00 | 0.00 | 0.00 | 53 | 1015.3 |
| 20260504151049 | 77 | 161 | 5.0 | 10.0 | 0.00 | 0.00 | 0.00 | 58 | 1016.0 |
| 20260504150549 | 77 | 167 | 2.0 | 12.0 | 0.00 | 0.00 | 0.00 | 59 | 1016.1 |
| 20260504141040 | 73 | 156 | 2.0 | 6.0 | 0.00 | 0.00 | 0.00 | 63 | 1016.1 |
| 20260504140539 | 72 | 181 | 3.0 | 5.0 | 0.00 | 0.00 | 0.00 | 63 | 1016.2 |
| 20260504130523 | 64 | 150 | 1.0 | 3.0 | 0.00 | 0.00 | 0.00 | 75 | 1016.1 |
| 20260504110514 | 58 | 180 | 0.0 | 0.0 | 0.00 | 0.00 | 0.00 | 83 | 1015.7 |
| 20260504100509 | 58 | 180 | 0.0 | 1.0 | 0.00 | 0.00 | 0.00 | 82 | 1016.0 |
| 20260504081601 | 59 | 180 | 0.0 | 2.0 | 0.00 | 0.00 | 0.00 | 77 | 1016.6 |
| 20260504081101 | 59 | 180 | 0.0 | 3.0 | 0.00 | 0.00 | 0.00 | 78 | 1016.5 |
| 20260504080559 | 59 | 180 | 1.0 | 3.0 | 0.00 | 0.00 | 0.00 | 78 | 1016.7 |
| 20260504050531 | 62 | 163 | 0.0 | 2.0 | 0.00 | 0.00 | 0.00 | 69 | 1018.8 |
| 20260504045531 | 62 | 163 | 0.0 | 1.0 | 0.00 | 0.00 | 0.00 | 69 | 1018.7 |
| 20260504045029 | 63 | 163 | 0.0 | 1.0 | 0.00 | 0.00 | 0.00 | 69 | 1018.6 |
| 20260504044537 | 63 | 163 | 0.0 | 0.0 | 0.00 | 0.00 | 0.00 | 68 | 1018.7 |
| 20260504044034 | 63 | 163 | 0.0 | 0.0 | 0.00 | 0.00 | 0.00 | 69 | 1018.7 |
| 20260504043529 | 63 | 163 | 0.0 | 0.0 | 0.00 | 0.00 | 0.00 | 68 | 1018.7 |
| 20260504043029 | 63 | 163 | 0.0 | 0.0 | 0.00 | 0.00 | 0.00 | 67 | 1018.8 |
| 20260504042528 | 64 | 163 | 0.0 | 0.0 | 0.00 | 0.00 | 0.00 | 66 | 1018.8 |
| 20260504042028 | 64 | 163 | 0.0 | 0.0 | 0.00 | 0.00 | 0.00 | 66 | 1018.8 |
| 20260504041528 | 64 | 163 | 0.0 | 0.0 | 0.00 | 0.00 | 0.00 | 65 | 1018.9 |
| 20260504041028 | 64 | 163 | 0.0 | 0.0 | 0.00 | 0.00 | 0.00 | 65 | 1018.9 |
| 20260504040528 | 64 | 163 | 0.0 | 0.0 | 0.00 | 0.00 | 0.00 | 65 | 1018.8 |
| 20260504040028 | 64 | 163 | 0.0 | 1.0 | 0.00 | 0.00 | 0.00 | 64 | 1018.7 |
| 20260504035531 | 64 | 163 | 0.0 | 3.0 | 0.00 | 0.00 | 0.00 | 64 | 1018.8 |
| 20260504035029 | 65 | 163 | 1.0 | 3.0 | 0.00 | 0.00 | 0.00 | 64 | 1018.7 |
| 20260504034544 | 65 | 163 | 0.0 | 3.0 | 0.00 | 0.00 | 0.00 | 63 | 1018.7 |
| 20260504034028 | 65 | 163 | 1.0 | 3.0 | 0.00 | 0.00 | 0.00 | 62 | 1018.7 |
| 20260504033527 | 65 | 163 | 1.0 | 5.0 | 0.00 | 0.00 | 0.00 | 62 | 1018.8 |
| 20260504033027 | 66 | 163 | 2.0 | 5.0 | 0.00 | 0.00 | 0.00 | 61 | 1018.9 |
| 20260504032527 | 66 | 163 | 1.0 | 5.0 | 0.00 | 0.00 | 0.00 | 61 | 1018.8 |
| 20260504032028 | 66 | 162 | 1.0 | 4.0 | 0.00 | 0.00 | 0.00 | 60 | 1018.8 |
| 20260504031527 | 66 | 162 | 1.0 | 3.0 | 0.00 | 0.00 | 0.00 | 60 | 1018.7 |
| 20260504031026 | 66 | 158 | 1.0 | 6.0 | 0.00 | 0.00 | 0.00 | 59 | 1018.7 |
| 20260504030527 | 67 | 164 | 2.0 | 6.0 | 0.00 | 0.00 | 0.00 | 59 | 1018.6 |
| 20260504030039 | 67 | 138 | 1.0 | 5.0 | 0.00 | 0.00 | 0.00 | 59 | 1018.7 |
| 20260504025529 | 67 | 187 | 2.0 | 5.0 | 0.00 | 0.00 | 0.00 | 58 | 1018.6 |
| 20260504025027 | 67 | 175 | 2.0 | 6.0 | 0.00 | 0.00 | 0.00 | 58 | 1018.5 |
| 20260504024526 | 67 | 171 | 1.0 | 8.0 | 0.00 | 0.00 | 0.00 | 57 | 1018.5 |
| 20260504024026 | 67 | 167 | 2.0 | 8.0 | 0.00 | 0.00 | 0.00 | 56 | 1018.5 |
| 20260504023526 | 68 | 162 | 3.0 | 7.0 | 0.00 | 0.00 | 0.00 | 56 | 1018.5 |
| 20260504023027 | 68 | 151 | 2.0 | 6.0 | 0.00 | 0.00 | 0.00 | 56 | 1018.5 |
| 20260504022526 | 68 | 179 | 2.0 | 6.0 | 0.00 | 0.00 | 0.00 | 55 | 1018.4 |
| 20260504022026 | 68 | 180 | 1.0 | 5.0 | 0.00 | 0.00 | 0.00 | 54 | 1018.5 |
| 20260504021526 | 69 | 140 | 1.0 | 6.0 | 0.00 | 0.00 | 0.00 | 54 | 1018.2 |
| 20260504021025 | 69 | 162 | 3.0 | 8.0 | 0.00 | 0.00 | 0.00 | 53 | 1018.2 |
| 20260504020525 | 69 | 105 | 4.0 | 8.0 | 0.00 | 0.00 | 0.00 | 53 | 1018.2 |
| 20260504020027 | 69 | 128 | 3.0 | 8.0 | 0.00 | 0.00 | 0.00 | 52 | 1018.1 |
| 20260504015525 | 69 | 165 | 4.0 | 8.0 | 0.00 | 0.00 | 0.00 | 51 | 1018.1 |
| 20260504015025 | 70 | 167 | 4.0 | 9.0 | 0.00 | 0.00 | 0.00 | 51 | 1018.2 |
| 20260504014535 | 70 | 126 | 4.0 | 9.0 | 0.00 | 0.00 | 0.00 | 51 | 1018.1 |
| 20260504014024 | 70 | 178 | 4.0 | 9.0 | 0.00 | 0.00 | 0.00 | 51 | 1018.2 |
| 20260504013524 | 70 | 149 | 4.0 | 8.0 | 0.00 | 0.00 | 0.00 | 50 | 1018.1 |
| 20260504013024 | 70 | 163 | 5.0 | 10.0 | 0.00 | 0.00 | 0.00 | 50 | 1018.1 |
| 20260504012524 | 71 | 170 | 3.0 | 10.0 | 0.00 | 0.00 | 0.00 | 49 | 1018.0 |
| 20260504012024 | 71 | 178 | 5.0 | 10.0 | 0.00 | 0.00 | 0.00 | 49 | 1018.0 |
| 20260504011524 | 71 | 238 | 3.0 | 10.0 | 0.00 | 0.00 | 0.00 | 49 | 1018.0 |
| 20260504011024 | 71 | 165 | 2.0 | 7.0 | 0.00 | 0.00 | 0.00 | 49 | 1017.9 |
| 20260504010523 | 72 | 153 | 3.0 | 8.0 | 0.00 | 0.00 | 0.00 | 48 | 1017.9 |
| 20260504010023 | 72 | 143 | 4.0 | 8.0 | 0.00 | 0.00 | 0.00 | 48 | 1017.9 |
| 20260504005523 | 72 | 163 | 3.0 | 9.0 | 0.00 | 0.00 | 0.00 | 48 | 1017.9 |
| 20260504005023 | 72 | 153 | 3.0 | 10.0 | 0.00 | 0.00 | 0.00 | 47 | 1017.9 |
| 20260504004523 | 72 | 178 | 4.0 | 10.0 | 0.00 | 0.00 | 0.00 | 47 | 1017.9 |
| 20260504004022 | 73 | 195 | 3.0 | 9.0 | 0.00 | 0.00 | 0.00 | 47 | 1018.1 |
| 20260504003522 | 73 | 186 | 4.0 | 8.0 | 0.00 | 0.00 | 0.00 | 47 | 1018.1 |
| 20260504003030 | 73 | 179 | 3.0 | 7.0 | 0.00 | 0.00 | 0.00 | 47 | 1018.0 |
| 20260504002522 | 73 | 158 | 4.0 | 10.0 | 0.00 | 0.00 | 0.00 | 47 | 1017.9 |
| 20260504002022 | 74 | 152 | 5.0 | 10.0 | 0.00 | 0.00 | 0.00 | 46 | 1017.9 |
| 20260504001521 | 74 | 168 | 3.0 | 7.0 | 0.00 | 0.00 | 0.00 | 46 | 1017.9 |
| 20260504001021 | 75 | 168 | 3.0 | 10.0 | 0.00 | 0.00 | 0.00 | 45 | 1017.8 |
| 20260504000522 | 75 | 161 | 3.0 | 10.0 | 0.00 | 0.00 | 0.00 | 44 | 1017.9 |
| 20260504000021 | 75 | 184 | 3.0 | 9.0 | 0.00 | 0.00 | 0.00 | 43 | 1017.8 |
| 20260503235520 | 76 | 173 | 4.0 | 8.0 | 0.00 | 0.00 | 0.00 | 42 | 1018.0 |
| 20260503235023 | 76 | 169 | 4.0 | 10.0 | 0.00 | 0.00 | 0.00 | 41 | 1017.9 |
| 20260503234535 | 76 | 170 | 3.0 | 10.0 | 0.00 | 0.00 | 0.00 | 41 | 1017.9 |
| 20260503234020 | 76 | 136 | 4.0 | 10.0 | 0.00 | 0.00 | 0.00 | 41 | 1017.9 |
| 20260503233522 | 76 | 167 | 5.0 | 10.0 | 0.00 | 0.00 | 0.00 | 39 | 1017.9 |
| 20260503233018 | 77 | 146 | 5.0 | 10.0 | 0.00 | 0.00 | 0.00 | 39 | 1018.0 |
| 20260503232519 | 77 | 186 | 5.0 | 10.0 | 0.00 | 0.00 | 0.00 | 38 | 1018.1 |
| 20260503232017 | 77 | 139 | 5.0 | 10.0 | 0.00 | 0.00 | 0.00 | 37 | 1018.1 |
| 20260503231517 | 77 | 182 | 4.0 | 9.0 | 0.00 | 0.00 | 0.00 | 37 | 1018.2 |
| 20260503231019 | 77 | 152 | 4.0 | 10.0 | 0.00 | 0.00 | 0.00 | 38 | 1018.2 |
| 20260503230517 | 78 | 167 | 5.0 | 9.0 | 0.00 | 0.00 | 0.00 | 37 | 1018.2 |
| 20260503230017 | 78 | 159 | 5.0 | 10.0 | 0.00 | 0.00 | 0.00 | 34 | 1018.1 |
| 20260503225517 | 78 | 148 | 3.0 | 10.0 | 0.00 | 0.00 | 0.00 | 32 | 1018.1 |
| 20260503225019 | 78 | 177 | 4.0 | 10.0 | 0.00 | 0.00 | 0.00 | 33 | 1018.3 |
| 20260503224515 | 78 | 169 | 2.0 | 9.0 | 0.00 | 0.00 | 0.00 | 33 | 1018.4 |
| 20260503224015 | 78 | 297 | 2.0 | 9.0 | 0.00 | 0.00 | 0.00 | 33 | 1018.4 |
| 20260503223514 | 79 | 133 | 4.0 | 9.0 | 0.00 | 0.00 | 0.00 | 32 | 1018.5 |
| 20260503223014 | 79 | 122 | 3.0 | 9.0 | 0.00 | 0.00 | 0.00 | 31 | 1018.5 |
| 20260503222512 | 79 | 173 | 4.0 | 9.0 | 0.00 | 0.00 | 0.00 | 33 | 1018.4 |
| 20260503222011 | 79 | 96 | 2.0 | 9.0 | 0.00 | 0.00 | 0.00 | 31 | 1018.6 |
| 20260503221511 | 79 | 159 | 2.0 | 7.0 | 0.00 | 0.00 | 0.00 | 32 | 1018.7 |
| 20260503221012 | 79 | 165 | 3.0 | 8.0 | 0.00 | 0.00 | 0.00 | 31 | 1018.8 |
| 20260503220516 | 79 | 171 | 4.0 | 8.0 | 0.00 | 0.00 | 0.00 | 31 | 1018.9 |
| 20260503220011 | 79 | 183 | 2.0 | 9.0 | 0.00 | 0.00 | 0.00 | 32 | 1018.7 |
| 20260503215512 | 79 | 166 | 3.0 | 9.0 | 0.00 | 0.00 | 0.00 | 30 | 1018.8 |
| 20260503215010 | 79 | 171 | 4.0 | 9.0 | 0.00 | 0.00 | 0.00 | 30 | 1018.8 |
| 20260503214513 | 79 | 142 | 3.0 | 9.0 | 0.00 | 0.00 | 0.00 | 31 | 1018.8 |
| 20260503214014 | 79 | 167 | 4.0 | 11.0 | 0.00 | 0.00 | 0.00 | 31 | 1018.8 |
| 20260503213508 | 79 | 182 | 3.0 | 11.0 | 0.00 | 0.00 | 0.00 | 29 | 1018.9 |
| 20260503213007 | 80 | 181 | 6.0 | 11.0 | 0.00 | 0.00 | 0.00 | 30 | 1019.2 |
| 20260503212507 | 80 | 150 | 2.0 | 8.0 | 0.00 | 0.00 | 0.00 | 32 | 1019.2 |
| 20260503212006 | 81 | 115 | 2.0 | 9.0 | 0.00 | 0.00 | 0.00 | 31 | 1019.4 |
| 20260503211506 | 81 | 112 | 1.0 | 5.0 | 0.00 | 0.00 | 0.00 | 30 | 1019.4 |
| 20260503211005 | 80 | 79 | 1.0 | 9.0 | 0.00 | 0.00 | 0.00 | 31 | 1019.5 |
| 20260503210505 | 80 | 202 | 2.0 | 12.0 | 0.00 | 0.00 | 0.00 | 31 | 1019.6 |
| 20260503210006 | 80 | 167 | 5.0 | 12.0 | 0.00 | 0.00 | 0.00 | 30 | 1019.5 |
| 20260503205504 | 81 | 289 | 1.0 | 7.0 | 0.00 | 0.00 | 0.00 | 32 | 1019.6 |
| 20260503205004 | 81 | 281 | 1.0 | 7.0 | 0.00 | 0.00 | 0.00 | 31 | 1019.7 |
| 20260503204504 | 80 | 147 | 1.0 | 9.0 | 0.00 | 0.00 | 0.00 | 33 | 1019.6 |